This is the latest recevied weather packets stored in our database for station/object OK2ILA-1. If no packets are shown the sender has not sent any weather packets the latest 10 day(s).
| Time | Temp. | Humidity | Pressure | Rain* | Wind** | Luminosity | Snow |
|---|---|---|---|---|---|---|---|
| 1777946542 | 11.67° C | 100% | 1012.5 hPa | 0 mm | - | - | - |
| 1777945822 | 11.67° C | 100% | 1012.6 hPa | 0 mm | - | - | - |
| 1777945101 | 12.22° C | 100% | 1012.7 hPa | 0 mm | - | - | - |
| 1777944380 | 13.33° C | 100% | 1012.7 hPa | 0 mm | - | - | - |
| 1777943660 | 12.78° C | 100% | 1012.7 hPa | 0 mm | - | - | - |
| 1777942939 | 12.22° C | 100% | 1012.8 hPa | 0 mm | - | - | - |
| 1777942219 | 11.67° C | 100% | 1012.8 hPa | 0 mm | - | - | - |
| 1777941498 | 12.22° C | 100% | 1012.9 hPa | 0 mm | - | - | - |
| 1777940777 | 11.67° C | 100% | 1013.1 hPa | 0 mm | - | - | - |
| 1777940056 | 11.67° C | 100% | 1013.2 hPa | 0 mm | - | - | - |
| 1777939336 | 11.67° C | 100% | 1013.4 hPa | 0 mm | - | - | - |
| 1777938615 | 12.22° C | 100% | 1013.6 hPa | 0 mm | - | - | - |
| 1777937894 | 12.22° C | 100% | 1013.7 hPa | 0 mm | - | - | - |
| 1777937174 | 12.78° C | 100% | 1013.7 hPa | 0 mm | - | - | - |
| 1777936453 | 12.78° C | 100% | 1013.9 hPa | 0 mm | - | - | - |
| 1777935732 | 13.33° C | 100% | 1014 hPa | 0 mm | - | - | - |
| 1777935012 | 13.33° C | 100% | 1014.1 hPa | 0 mm | - | - | - |
| 1777934291 | 13.33° C | 100% | 1014.2 hPa | 0 mm | - | - | - |
| 1777933570 | 13.89° C | 100% | 1014.1 hPa | 0 mm | - | - | - |
| 1777932850 | 13.89° C | 100% | 1014.2 hPa | 0 mm | - | - | - |
| 1777932129 | 14.44° C | 100% | 1014.2 hPa | 0 mm | - | - | - |
| 1777931408 | 14.44° C | 100% | 1014.2 hPa | 0 mm | - | - | - |
| 1777930687 | 14.44° C | 100% | 1014.3 hPa | 0 mm | - | - | - |
| 1777929967 | 15° C | 100% | 1014.3 hPa | 0 mm | - | - | - |
| 1777929246 | 15° C | 100% | 1014.4 hPa | 0 mm | - | - | - |
* Rain latest hour (hover to see other rain measurements)
** Current wind speed in m/s (hover to see current wind gust speed)